Change the Weather History Date:

Thursday, February 23, 2012

  Actual Average Record
Temperature  
Mean Temperature 43 °F -  
Max Temperature 51 °F 46 °F 59 °F (1997)
Min Temperature 35 °F 34 °F 27 °F (2006)
Degree Days  
Heating Degree Days 22    
Moisture  
Dew Point 34 °F    
Average Humidity 70    
Maximum Humidity 89    
Minimum Humidity 54    
Precipitation  
Precipitation 0.00 in - - ()
Sea Level Pressure  
Sea Level Pressure 30.34 in    
Wind  
Wind Speed 5 mph (SW)    
Max Wind Speed 10 mph    
Max Gust Speed 20 mph    
Visibility 10 miles    
Events Rain    
Averages and records for this station are not official NWS values.
T = Trace of Precipitation, MM = Missing Value Source: NWS Daily Summary

Daily Weather History Graph

Daily Weather History Graph

Search for Another Location

Airport or City:

Trip Planner

Search our weather history database for the weather conditions in past years. The results will help you decide how hot, cold, wet, or windy it might be!

Date:

Astronomy

Feb. 23, 2012 Rise Set
Actual Time 7:05 AM PST 5:45 PM PST
Civil Twilight 6:34 AM PST 6:17 PM PST
Nautical Twilight 5:57 AM PST 6:54 PM PST
Astronomical Twilight 5:21 AM PST 7:30 PM PST
Moon 7:21 AM PST (2/23) 8:13 PM PST (2/23)
Length of Visible Light 11h 43m
Length of Day
10h 40m
Waxing Crescent, 4% of the Moon is Illuminated
Feb 23
Waxing Crescent
Feb 29
First Quarter
Mar 8
Full
Mar 14
Last Quarter
Mar 22
New

Hourly Weather History & Observations

Time (PST) Temp. Windchill Dew Point Humidity Pressure Visibility Wind Dir Wind Speed Gust Speed Precip Events Conditions
12:53 AM 44.1 °F 39.5 °F 35.1 °F 71% 30.31 in 10.0 mi SW 8.1 mph - N/A   Clear
1:53 AM 43.0 °F 40.3 °F 34.0 °F 71% 30.34 in 10.0 mi WSW 4.6 mph - N/A   Clear
2:53 AM 39.9 °F - 34.0 °F 79% 30.35 in 10.0 mi Calm Calm - N/A   Clear
3:53 AM 39.9 °F 37.8 °F 34.0 °F 79% 30.35 in 10.0 mi SW 3.5 mph - N/A   Clear
4:53 AM 41.0 °F 39.0 °F 34.0 °F 76% 30.35 in 10.0 mi North 3.5 mph - N/A   Clear
5:53 AM 37.0 °F - 33.1 °F 86% 30.35 in 10.0 mi Calm Calm - N/A   Clear
6:53 AM 35.1 °F - 32.0 °F 89% 30.37 in 10.0 mi Calm Calm - N/A   Clear
7:53 AM 37.9 °F - 35.1 °F 89% 30.36 in 10.0 mi Calm Calm - N/A   Clear
8:53 AM 41.0 °F - 36.0 °F 82% 30.37 in 10.0 mi Calm Calm - N/A   Clear
9:53 AM 45.0 °F 42.6 °F 36.0 °F 71% 30.38 in 10.0 mi SSW 4.6 mph - N/A   Partly Cloudy
10:53 AM 46.9 °F - 34.0 °F 61% 30.38 in 10.0 mi SW 9.2 mph - N/A   Mostly Cloudy
11:53 AM 46.9 °F - 35.1 °F 63% 30.39 in 10.0 mi SSW 9.2 mph - N/A   Clear
12:32 PM 48.2 °F - 35.6 °F 62% 30.37 in 10.0 mi SW 10.4 mph - N/A   Mostly Cloudy
12:39 PM 48.2 °F - 35.6 °F 62% 30.37 in 10.0 mi Variable 6.9 mph - N/A   Mostly Cloudy
12:53 PM 51.1 °F - 35.1 °F 54% 30.37 in 10.0 mi WSW 5.8 mph - N/A   Mostly Cloudy
1:53 PM 50.0 °F - 36.0 °F 59% 30.36 in 10.0 mi SSW 9.2 mph 16.1 mph N/A   Partly Cloudy
2:53 PM 48.9 °F - 33.1 °F 54% 30.34 in 10.0 mi SW 10.4 mph 19.6 mph N/A   Mostly Cloudy
3:53 PM 46.9 °F - 34.0 °F 61% 30.34 in 10.0 mi SW 9.2 mph 18.4 mph N/A   Overcast
4:53 PM 46.0 °F 43.1 °F 34.0 °F 63% 30.33 in 10.0 mi SW 5.8 mph - N/A   Overcast
5:53 PM 45.0 °F 43.5 °F 32.0 °F 60% 30.32 in 10.0 mi WSW 3.5 mph - N/A   Overcast
6:53 PM 45.0 °F 41.2 °F 32.0 °F 60% 30.32 in 10.0 mi SW 6.9 mph - N/A   Overcast
7:53 PM 45.0 °F 43.5 °F 32.0 °F 60% 30.32 in 10.0 mi Variable 3.5 mph - N/A   Overcast
8:53 PM 44.1 °F 40.8 °F 33.1 °F 65% 30.30 in 10.0 mi SW 5.8 mph - N/A   Overcast
9:53 PM 42.1 °F - 34.0 °F 73% 30.29 in 10.0 mi Calm Calm - N/A   Overcast
10:53 PM 41.0 °F - 34.0 °F 76% 30.28 in 10.0 mi Calm Calm - 0.00 in Rain Light Rain
11:53 PM 41.0 °F - 36.0 °F 82% 30.27 in 10.0 mi Calm Calm - 0.00 in Rain Light Rain